This is the latest recevied weather packets stored in our database for station/object KSRC. If no packets are shown the sender has not sent any weather packets the latest 10 day(s).
| Time | Temp. | Humidity | Pressure | Rain* | Wind** | Luminosity | Snow |
|---|---|---|---|---|---|---|---|
| 1777908217 | 22.78° C | 53% | 1013.2 hPa | - | - | - | - |
| 1777907617 | 21.67° C | 53% | 1013.5 hPa | - | - | - | - |
| 1777907021 | 21.67° C | 53% | 1013.5 hPa | - | - | - | - |
| 1777906418 | 18.89° C | 68% | 1013.9 hPa | - | - | - | - |
| 1777905819 | 18.89° C | 68% | 1013.9 hPa | - | - | - | - |
| 1777905218 | 18.89° C | 68% | 1013.9 hPa | - | - | - | - |
| 1777904616 | 18.89° C | 68% | 1013.9 hPa | - | - | - | - |
| 1777904021 | 18.89° C | 68% | 1013.9 hPa | - | - | - | - |
| 1777903416 | 18.89° C | 68% | 1013.9 hPa | - | - | - | - |
| 1777902816 | 17.78° C | 72% | 1013.9 hPa | - | - | - | - |
| 1777902218 | 17.78° C | 72% | 1013.9 hPa | - | - | - | - |
| 1777901622 | 15.56° C | 77% | 1013.5 hPa | - | - | - | - |
| 1777901019 | 15.56° C | 77% | 1013.5 hPa | - | - | - | - |
| 1777900418 | 15.56° C | 77% | 1013.5 hPa | - | - | - | - |
| 1777899818 | 15.56° C | 77% | 1013.5 hPa | - | - | - | - |
| 1777899221 | 13.89° C | 87% | 1013.2 hPa | - | - | - | - |
| 1777898621 | 13.89° C | 87% | 1013.2 hPa | - | - | - | - |
| 1777898022 | 13.89° C | 87% | 1013.2 hPa | - | - | - | - |
| 1777897420 | 13.89° C | 87% | 1013.2 hPa | - | - | - | - |
| 1777896817 | 13.89° C | 87% | 1013.2 hPa | - | - | - | - |
| 1777896218 | 13.89° C | 87% | 1013.2 hPa | - | - | - | - |
| 1777895617 | 12.78° C | 87% | 1012.9 hPa | - | - | - | - |
| 1777895020 | 12.78° C | 87% | 1012.9 hPa | - | - | - | - |
| 1777894419 | 12.78° C | 87% | 1012.9 hPa | - | - | - | - |
| 1777893819 | 12.78° C | 87% | 1012.9 hPa | - | - | - | - |
* Rain since midnight (hover to see other rain measurements)
** Current wind speed in m/s (hover to see current wind gust speed)